Miscellaneous Local Product
Issued by NWS North Platte, NE

Home | Current Version | Previous Version | Text Only | Print | Product List | Glossary On
Versions: 1 2 3 4 5 6 7 8 9 10 11 12 13 14 15 16 17 18 19 20 21 22 23 24 25 26 27 28 29 30 31 32 33 34 35 36 37 38 39 40 41 42 43 44 45 46 47 48 49 50
885
AXUS43 KLBF 280810
MISLBF


WESTERN AND NORTH CENTRAL NEBRASKA HOURLY WEATHER ROUNDUP
NATIONAL WEATHER SERVICE NORTH PLATTE NE
300 AM CDT FRI APR 28 2017

NOTE: "FAIR" INDICATES FEW OR NO CLOUDS BELOW 12,000 FEET WITH NO
SIGNIFICANT WEATHER AND/OR OBSTRUCTIONS TO VISIBILITY.

NOTE: STATIONS NOT REPORTING VARIABLES SUCH AS SKY/WEATHER OR
PRESSURE ARE PROVIDED BY RAWS AND APRS NETWORKS AND ARE NOT UNDER
NATIONAL WEATHER SERVICE QUALITY CONTROL.

...OBSERVATIONS IN AND NEAR THE EASTERN PANHANDLE OF NEBRASKA...

CITY           SKY/WX    TMP DP  RH WIND       PRES   REMARKS
PINE RIDGE     LGT RAIN  40  39  97 E13       29.68F WCI  32
CHADRON        LGT RAIN  41  37  86 E12G21    29.67S
ALLIANCE       FLURRIES  35  33  92 SE14      29.63S WCI  26
SIDNEY         CLOUDY    37  35  92 SE9       29.62F WCI  30
CRESCENT LAKE    N/A     33  33 100 E7G16       N/A  WCI  27
$$

...OBSERVATIONS IN NORTHERN NEBRASKA AND FAR SOUTHERN SOUTH DAKOTA...

CITY           SKY/WX    TMP DP  RH WIND       PRES   REMARKS
WINNER         FAIR      37  30  75 E12       29.78F WCI  29
VALENTINE      CLOUDY    42  32  67 E14       29.74F
THEDFORD       LGT RAIN  42  41  95 E8        29.69F
AINSWORTH      CLOUDY    40  34  80 E15G22    29.75S WCI  31
O`NEILL        CLOUDY    40  31  69 E17       29.78S WCI  31
ORD            CLOUDY    44  36  73 E13       29.70F
BROKEN BOW     LGT RAIN  45  41  86 E10       29.67F
VALENTINE NWR    N/A     42  37  84 E13         N/A
HALSEY           N/A     42  40  94 E5          N/A
BUTTE            N/A     37  30  75 N18         N/A  WCI  27
CHAMBERS         N/A     42  32  67 E9          N/A
EWING            N/A     40  34  78 NE9         N/A  WCI  34
$$

...OBSERVATIONS IN SOUTHWEST NEBRASKA AND FAR NORTHEAST COLORADO...

CITY           SKY/WX    TMP DP  RH WIND       PRES   REMARKS
HOLYOKE        DRIZZLE   41  37  87 NE9       29.61S
IMPERIAL       LGT RAIN  42  40  92 NE8       29.60F
OGALLALA       LGT SNOW  34  33  96 E6        29.65S WCI  29
NORTH PLATTE   RAIN      43  42  97 E8        29.65F FOG
MCCOOK         LGT RAIN  43  43 100 E15       29.59F FOG
LEXINGTON      RAIN      44  42  92 E9        29.66S
STAPLETON        N/A     41  40  96 CALM        N/A
GOTHENBURG       N/A     43  41  94 E8          N/A
CALLAWAY         N/A     42  40  94 E9          N/A
$$

...OBSERVATIONS IN CENTRAL LINCOLN COUNTY AREA...

CITY           SKY/WX    TMP DP  RH WIND       PRES   REMARKS
N.P. AIRPORT   RAIN      43  42  97 E8        29.65F FOG
N.P. DOWNTOWN    N/A     42  40  94 CALM        N/A
N.P. SOUTHEAST   N/A     42  40  92 SE5G12      N/A
N.P. HILLCREST   N/A     42  41  95 E9          N/A
$$

...SOME OBSERVATIONS FROM AROUND THE REGION...

CITY           SKY/WX    TMP DP  RH WIND       PRES   REMARKS
DENVER         PTCLDY    37  22  54 W10       29.61F WCI  30
LIMON          CLEAR     30  30 100 W8        29.62F WCI  22
ASPEN          CLOUDY    25  22  88 SW8       29.74F WCI  16
LARAMIE        CLEAR     28  20  71 SW16      29.62F WCI  16
CASPER         LGT SNOW  32  31  96 N12       29.65S FOG     WCI  23
CHEYENNE       CLOUDY    32  25  75 W7        29.61F WCI  26
SCOTTSBLUFF    CLOUDY    41  38  89 E14       29.60F
GRAND ISLAND   LGT RAIN  45  44  97 E12       29.71F FOG
OMAHA          CLOUDY    46  34  62 E9        29.79S
SIOUX FALLS    CLEAR     31  27  85 E5        29.84F WCI  26
PIERRE         PTCLDY    30  25  81 NE8       29.81R WCI  22
RAPID CITY     CLOUDY    38  31  76 NE3       29.75F
BISMARCK       CLEAR     30  26  85 S3        29.91R
KANSAS CITY    LGT RAIN  50  47  89 E15       29.72F
HILL CITY      CLOUDY    46  46 100 E7        29.60F
WICHITA        CLOUDY    54  49  83 E13       29.57F
DODGE CITY     CLOUDY    47  45  93 CALM      29.56S
OKLAHOMA CITY  CLOUDY    58  51  78 SE17G30   29.56F
DALLAS         CLOUDY    67  58  72 S13G23    29.53F
AMARILLO       CLOUDY    55  44  66 NW8       29.62R
$$




USA.gov is the U.S. government's official web portal to all federal, state and local government web resources and services.